Location: Oregon Trail
(41.1872°N, 102.0741°W)
Time: 10:50:16
(UTC+00:00)

Cosmos 1238 Rocket - Pass Details

Date: 19 November 2019
Orbit: 374 x 1033 km, 82.9° (Epoch: 12 December)

Event Time Altitude Azimuth Distance (km) Brightness Sun altitude
Rises 12:46:52 0° 194° (SSW) 3,772 7.1 -10.3°
Reaches altitude 10° 12:49:32 10° 198° (SSW) 2,808 6.4 -9.8°
Maximum altitude 12:56:03 64° 279° (W) 1,068 4.0 -8.6°
Drops below altitude 10° 13:01:57 10° 1° (N) 2,551 6.0 -7.6°
Sets 13:04:17 0° 4° (N) 3,406 6.7 -7.2°
